Year,Month,Day,Hour,Minute,Value (Times are PST for temperature in C)
2012,09,28,00,00,13.70
2012,09,28,00,01,13.70
2012,09,28,00,02,13.70
2012,09,28,00,03,13.70
2012,09,28,00,04,13.70
2012,09,28,00,05,13.70
2012,09,28,00,06,13.70
2012,09,28,00,07,13.70
2012,09,28,00,08,13.70
2012,09,28,00,09,13.70
2012,09,28,00,10,13.70
2012,09,28,00,11,13.60
2012,09,28,00,12,13.60
2012,09,28,00,13,13.60
2012,09,28,00,14,13.60
2012,09,28,00,15,13.60
2012,09,28,00,16,13.60
2012,09,28,00,17,13.70
2012,09,28,00,18,13.70
2012,09,28,00,19,13.70
2012,09,28,00,20,13.60
2012,09,28,00,21,13.60
2012,09,28,00,22,13.60
2012,09,28,00,23,13.60
2012,09,28,00,24,13.60
2012,09,28,00,25,13.60
2012,09,28,00,26,13.60
2012,09,28,00,27,13.60
2012,09,28,00,28,13.60
2012,09,28,00,29,13.60
2012,09,28,00,30,13.60
2012,09,28,00,31,13.60
2012,09,28,00,32,13.60
2012,09,28,00,33,13.60
2012,09,28,00,34,13.60
2012,09,28,00,35,13.70
2012,09,28,00,36,13.70
2012,09,28,00,37,13.70
2012,09,28,00,38,13.70
2012,09,28,00,39,13.70
2012,09,28,00,40,13.70
2012,09,28,00,41,13.70
2012,09,28,00,42,13.70
2012,09,28,00,43,13.70
2012,09,28,00,44,13.70
2012,09,28,00,45,13.60
2012,09,28,00,46,13.60
2012,09,28,00,47,13.50
2012,09,28,00,48,13.50
2012,09,28,00,49,13.50
2012,09,28,00,50,13.50
2012,09,28,00,51,13.50
2012,09,28,00,52,13.50
2012,09,28,00,53,13.40
2012,09,28,00,54,13.40
2012,09,28,00,55,13.40
2012,09,28,00,56,13.40
2012,09,28,00,57,13.40
2012,09,28,00,58,13.40
2012,09,28,00,59,13.40
2012,09,28,01,00,13.40
2012,09,28,01,01,13.30
2012,09,28,01,02,13.30
2012,09,28,01,03,13.30
2012,09,28,01,04,13.30
2012,09,28,01,05,13.30
2012,09,28,01,06,13.30
2012,09,28,01,07,13.30
2012,09,28,01,08,13.30
2012,09,28,01,09,13.30
2012,09,28,01,10,13.30
2012,09,28,01,11,13.30
2012,09,28,01,12,13.30
2012,09,28,01,13,13.30
2012,09,28,01,14,13.30
2012,09,28,01,15,13.30
2012,09,28,01,16,13.30
2012,09,28,01,17,13.30
2012,09,28,01,18,13.30
2012,09,28,01,19,13.30
2012,09,28,01,20,13.30
2012,09,28,01,21,13.30
2012,09,28,01,22,13.30
2012,09,28,01,23,13.30
2012,09,28,01,24,13.30
2012,09,28,01,25,13.30
2012,09,28,01,26,13.30
2012,09,28,01,27,13.30
2012,09,28,01,28,13.30
2012,09,28,01,29,13.30
2012,09,28,01,30,13.30
2012,09,28,01,31,13.30
2012,09,28,01,32,13.30
2012,09,28,01,33,13.30
2012,09,28,01,34,13.30
2012,09,28,01,35,13.30
2012,09,28,01,36,13.30
2012,09,28,01,37,13.30
2012,09,28,01,38,13.30
2012,09,28,01,39,13.30
2012,09,28,01,40,13.30
2012,09,28,01,41,13.30
2012,09,28,01,42,13.30
2012,09,28,01,43,13.30
2012,09,28,01,44,13.30
2012,09,28,01,45,13.30
2012,09,28,01,46,13.30
2012,09,28,01,47,13.30
2012,09,28,01,48,13.30
2012,09,28,01,49,13.30
2012,09,28,01,50,13.30
2012,09,28,01,51,13.30
2012,09,28,01,52,13.30
2012,09,28,01,53,13.30
2012,09,28,01,54,13.30
2012,09,28,01,55,13.30
2012,09,28,01,56,13.30
2012,09,28,01,57,13.30
2012,09,28,01,58,13.30
2012,09,28,01,59,13.30
2012,09,28,02,00,13.30
2012,09,28,02,01,13.30
2012,09,28,02,02,13.30
2012,09,28,02,03,13.30
2012,09,28,02,04,13.30
2012,09,28,02,05,13.30
2012,09,28,02,06,13.30
2012,09,28,02,07,13.30
2012,09,28,02,08,13.40
2012,09,28,02,09,13.30
2012,09,28,02,10,13.30
2012,09,28,02,11,13.30
2012,09,28,02,12,13.30
2012,09,28,02,13,13.30
2012,09,28,02,14,13.30
2012,09,28,02,15,13.30
2012,09,28,02,16,13.30
2012,09,28,02,17,13.30
2012,09,28,02,18,13.20
2012,09,28,02,19,13.20
2012,09,28,02,20,13.20
2012,09,28,02,21,13.20
2012,09,28,02,22,13.20
2012,09,28,02,23,13.20
2012,09,28,02,24,13.20
2012,09,28,02,25,13.10
2012,09,28,02,26,13.10
2012,09,28,02,27,13.10
2012,09,28,02,28,13.00
2012,09,28,02,29,13.00
2012,09,28,02,30,13.00
2012,09,28,02,31,12.90
2012,09,28,02,32,12.90
2012,09,28,02,33,12.90
2012,09,28,02,34,12.90
2012,09,28,02,35,12.80
2012,09,28,02,36,12.80
2012,09,28,02,37,12.80
2012,09,28,02,38,12.80
2012,09,28,02,39,12.80
2012,09,28,02,40,12.80
2012,09,28,02,41,12.90
2012,09,28,02,42,12.90
2012,09,28,02,43,12.90
2012,09,28,02,44,12.90
2012,09,28,02,45,12.90
2012,09,28,02,46,12.90
2012,09,28,02,47,12.90
2012,09,28,02,48,12.90
2012,09,28,02,49,12.90
2012,09,28,02,50,12.90
2012,09,28,02,51,12.90
2012,09,28,02,52,12.90
2012,09,28,02,53,12.90
2012,09,28,02,54,12.80
2012,09,28,02,55,12.80
2012,09,28,02,56,12.80
2012,09,28,02,57,12.80
2012,09,28,02,58,12.90
2012,09,28,02,59,12.90
2012,09,28,03,00,12.90
2012,09,28,03,01,12.90
2012,09,28,03,02,13.00
2012,09,28,03,03,13.00
2012,09,28,03,04,13.00
2012,09,28,03,05,13.00
2012,09,28,03,06,13.00
2012,09,28,03,07,13.00
2012,09,28,03,08,13.00
2012,09,28,03,09,13.00
2012,09,28,03,10,13.00
2012,09,28,03,11,13.00
2012,09,28,03,12,13.00
2012,09,28,03,13,12.90
2012,09,28,03,14,12.90
2012,09,28,03,15,12.90
2012,09,28,03,16,12.90
2012,09,28,03,17,12.90
2012,09,28,03,18,12.90
2012,09,28,03,19,12.90
2012,09,28,03,20,12.90
2012,09,28,03,21,12.90
2012,09,28,03,22,12.90
2012,09,28,03,23,12.90
2012,09,28,03,24,12.90
2012,09,28,03,25,12.90
2012,09,28,03,26,12.90
2012,09,28,03,27,12.90
2012,09,28,03,28,12.90
2012,09,28,03,29,12.90
2012,09,28,03,30,12.90
2012,09,28,03,31,12.90
2012,09,28,03,32,12.90
2012,09,28,03,33,12.90
2012,09,28,03,34,12.90
2012,09,28,03,35,12.90
2012,09,28,03,36,12.90
2012,09,28,03,37,12.90
2012,09,28,03,38,12.90
2012,09,28,03,39,12.90
2012,09,28,03,40,12.90
2012,09,28,03,41,12.90
2012,09,28,03,42,12.90
2012,09,28,03,43,12.80
2012,09,28,03,44,12.80
2012,09,28,03,45,12.80
2012,09,28,03,46,12.80
2012,09,28,03,47,12.80
2012,09,28,03,48,12.80
2012,09,28,03,49,12.80
2012,09,28,03,50,12.80
2012,09,28,03,51,12.80
2012,09,28,03,52,12.80
2012,09,28,03,53,12.80
2012,09,28,03,54,12.80
2012,09,28,03,55,12.80
2012,09,28,03,56,12.80
2012,09,28,03,57,12.80
2012,09,28,03,58,12.80
2012,09,28,03,59,12.80
2012,09,28,04,00,12.80
2012,09,28,04,01,12.80
2012,09,28,04,02,12.80
2012,09,28,04,03,12.80
2012,09,28,04,04,12.80
2012,09,28,04,05,12.80
2012,09,28,04,06,12.80
2012,09,28,04,07,12.80
2012,09,28,04,08,12.80
2012,09,28,04,09,12.80
2012,09,28,04,10,12.80
2012,09,28,04,11,12.80
2012,09,28,04,12,12.80
2012,09,28,04,13,12.80
2012,09,28,04,14,12.80
2012,09,28,04,15,12.80
2012,09,28,04,16,12.80
2012,09,28,04,17,12.80
2012,09,28,04,18,12.80
2012,09,28,04,19,12.80
2012,09,28,04,20,12.80
2012,09,28,04,21,12.80
2012,09,28,04,22,12.80
2012,09,28,04,23,12.80
2012,09,28,04,24,12.80
2012,09,28,04,25,12.80
2012,09,28,04,26,12.80
2012,09,28,04,27,12.80
2012,09,28,04,28,12.80
2012,09,28,04,29,12.80
2012,09,28,04,30,12.80
2012,09,28,04,31,12.80
2012,09,28,04,32,12.80
2012,09,28,04,33,12.80
2012,09,28,04,34,12.80
2012,09,28,04,35,12.80
2012,09,28,04,36,12.80
2012,09,28,04,37,12.80
2012,09,28,04,38,12.80
2012,09,28,04,39,12.80
2012,09,28,04,40,12.80
2012,09,28,04,41,12.80
2012,09,28,04,42,12.80
2012,09,28,04,43,12.80
2012,09,28,04,44,12.80
2012,09,28,04,45,12.80
2012,09,28,04,46,12.80
2012,09,28,04,47,12.80
2012,09,28,04,48,12.80
2012,09,28,04,49,12.80
2012,09,28,04,50,12.80
2012,09,28,04,51,12.80
2012,09,28,04,52,12.80
2012,09,28,04,53,12.80
2012,09,28,04,54,12.80
2012,09,28,04,55,12.80
2012,09,28,04,56,12.80
2012,09,28,04,57,12.80
2012,09,28,04,58,12.80
2012,09,28,04,59,12.80
2012,09,28,05,00,12.80
2012,09,28,05,01,12.80
2012,09,28,05,02,12.80
2012,09,28,05,03,12.80
2012,09,28,05,04,12.80
2012,09,28,05,05,12.80
2012,09,28,05,06,12.80
2012,09,28,05,07,12.80
2012,09,28,05,08,12.80
2012,09,28,05,09,12.80
2012,09,28,05,10,12.80
2012,09,28,05,11,12.80
2012,09,28,05,12,12.80
2012,09,28,05,13,12.80
2012,09,28,05,14,12.80
2012,09,28,05,15,12.80
2012,09,28,05,16,12.80
2012,09,28,05,17,12.80
2012,09,28,05,18,12.90
2012,09,28,05,19,12.90
2012,09,28,05,20,12.90
2012,09,28,05,21,12.90
2012,09,28,05,22,12.90
2012,09,28,05,23,12.90
2012,09,28,05,24,12.90
2012,09,28,05,25,12.80
2012,09,28,05,26,12.80
2012,09,28,05,27,12.80
2012,09,28,05,28,12.80
2012,09,28,05,29,12.80
2012,09,28,05,30,12.70
2012,09,28,05,31,12.70
2012,09,28,05,32,12.70
2012,09,28,05,33,12.60
2012,09,28,05,34,12.60
2012,09,28,05,35,12.60
2012,09,28,05,36,12.60
2012,09,28,05,37,12.50
2012,09,28,05,38,12.50
2012,09,28,05,39,12.50
2012,09,28,05,40,12.50
2012,09,28,05,41,12.40
2012,09,28,05,42,12.40
2012,09,28,05,43,12.40
2012,09,28,05,44,12.40
2012,09,28,05,45,12.40
2012,09,28,05,46,12.40
2012,09,28,05,47,12.40
2012,09,28,05,48,12.40
2012,09,28,05,49,12.40
2012,09,28,05,50,12.40
2012,09,28,05,51,12.40
2012,09,28,05,52,12.40
2012,09,28,05,53,12.40
2012,09,28,05,54,12.30
2012,09,28,05,55,12.30
2012,09,28,05,56,12.30
2012,09,28,05,57,12.30
2012,09,28,05,58,12.30
2012,09,28,05,59,12.30
2012,09,28,06,00,12.30
2012,09,28,06,01,12.30
2012,09,28,06,02,12.30
2012,09,28,06,03,12.30
2012,09,28,06,04,12.30
2012,09,28,06,05,12.30
2012,09,28,06,06,12.30
2012,09,28,06,07,12.30
2012,09,28,06,08,12.30
2012,09,28,06,09,12.30
2012,09,28,06,10,12.30
2012,09,28,06,11,12.30
2012,09,28,06,12,12.30
2012,09,28,06,13,12.30
2012,09,28,06,14,12.30
2012,09,28,06,15,12.30
2012,09,28,06,16,12.30
2012,09,28,06,17,12.30
2012,09,28,06,18,12.30
2012,09,28,06,19,12.30
2012,09,28,06,20,12.30
2012,09,28,06,21,12.40
2012,09,28,06,22,12.40
2012,09,28,06,23,12.40
2012,09,28,06,24,12.40
2012,09,28,06,25,12.40
2012,09,28,06,26,12.40
2012,09,28,06,27,12.40
2012,09,28,06,28,12.40
2012,09,28,06,29,12.40
2012,09,28,06,30,12.40
2012,09,28,06,31,12.40
2012,09,28,06,32,12.40
2012,09,28,06,33,12.40
2012,09,28,06,34,12.40
2012,09,28,06,35,12.40
2012,09,28,06,36,12.40
2012,09,28,06,37,12.40
2012,09,28,06,38,12.30
2012,09,28,06,39,12.30
2012,09,28,06,40,12.30
2012,09,28,06,41,12.30
2012,09,28,06,42,12.30
2012,09,28,06,43,12.30
2012,09,28,06,44,12.30
2012,09,28,06,45,12.30
2012,09,28,06,46,12.30
2012,09,28,06,47,12.30
2012,09,28,06,48,12.30
2012,09,28,06,49,12.30
2012,09,28,06,50,12.30
2012,09,28,06,51,12.30
2012,09,28,06,52,12.30
2012,09,28,06,53,12.30
2012,09,28,06,54,12.30
2012,09,28,06,55,12.30
2012,09,28,06,56,12.30
2012,09,28,06,57,12.30
2012,09,28,06,58,12.30
2012,09,28,06,59,12.40
2012,09,28,07,00,12.40
2012,09,28,07,01,12.40
2012,09,28,07,02,12.40
2012,09,28,07,03,12.40
2012,09,28,07,04,12.30
2012,09,28,07,05,12.30
2012,09,28,07,06,12.30
2012,09,28,07,07,12.40
2012,09,28,07,08,12.40
2012,09,28,07,09,12.40
2012,09,28,07,10,12.40
2012,09,28,07,11,12.40
2012,09,28,07,12,12.30
2012,09,28,07,13,12.30
2012,09,28,07,14,12.30
2012,09,28,07,15,12.30
2012,09,28,07,16,12.30
2012,09,28,07,17,12.30
2012,09,28,07,18,12.30
2012,09,28,07,19,12.30
2012,09,28,07,20,12.30
2012,09,28,07,21,12.30
2012,09,28,07,22,12.30
2012,09,28,07,23,12.30
2012,09,28,07,24,12.30
2012,09,28,07,25,12.30
2012,09,28,07,26,12.30
2012,09,28,07,27,12.30
2012,09,28,07,28,12.30
2012,09,28,07,29,12.30
2012,09,28,07,30,12.30
2012,09,28,07,31,12.40
2012,09,28,07,32,12.40
2012,09,28,07,33,12.40
2012,09,28,07,34,12.30
2012,09,28,07,35,12.30
2012,09,28,07,36,12.30
2012,09,28,07,37,12.30
2012,09,28,07,38,12.30
2012,09,28,07,39,12.30
2012,09,28,07,40,12.30
2012,09,28,07,41,12.30
2012,09,28,07,42,12.30
2012,09,28,07,43,12.20
2012,09,28,07,44,12.20
2012,09,28,07,45,12.20
2012,09,28,07,46,12.20
2012,09,28,07,47,12.10
2012,09,28,07,48,12.10
2012,09,28,07,49,12.10
2012,09,28,07,50,12.10
2012,09,28,07,51,12.10
2012,09,28,07,52,12.10
2012,09,28,07,53,12.10
2012,09,28,07,54,12.10
2012,09,28,07,55,12.10
2012,09,28,07,56,12.10
2012,09,28,07,57,12.10
2012,09,28,07,58,12.20
2012,09,28,07,59,12.20
2012,09,28,08,00,12.20
2012,09,28,08,01,12.20
2012,09,28,08,02,12.20
2012,09,28,08,03,12.20
2012,09,28,08,04,12.20
2012,09,28,08,05,12.30
2012,09,28,08,06,12.30
2012,09,28,08,07,12.30
2012,09,28,08,08,12.30
2012,09,28,08,09,12.30
2012,09,28,08,10,12.30
2012,09,28,08,11,12.30
2012,09,28,08,12,12.40
2012,09,28,08,13,12.40
2012,09,28,08,14,12.50
2012,09,28,08,15,12.50
2012,09,28,08,16,12.60
2012,09,28,08,17,12.60
2012,09,28,08,18,12.70
2012,09,28,08,19,12.70
2012,09,28,08,20,12.70
2012,09,28,08,21,12.80
2012,09,28,08,22,12.80
2012,09,28,08,23,12.80
2012,09,28,08,24,12.80
2012,09,28,08,25,12.80
2012,09,28,08,26,12.80
2012,09,28,08,27,12.80
2012,09,28,08,28,12.80
2012,09,28,08,29,12.80
2012,09,28,08,30,12.80
2012,09,28,08,31,12.80
2012,09,28,08,32,12.90
2012,09,28,08,33,12.90
2012,09,28,08,34,12.90
2012,09,28,08,35,12.90
2012,09,28,08,36,12.90
2012,09,28,08,37,12.90
2012,09,28,08,38,12.90
2012,09,28,08,39,13.00
2012,09,28,08,40,13.00
2012,09,28,08,41,13.00
2012,09,28,08,42,13.00
2012,09,28,08,43,13.00
2012,09,28,08,44,13.00
2012,09,28,08,45,13.00
2012,09,28,08,46,13.00
2012,09,28,08,47,13.00
2012,09,28,08,48,13.00
2012,09,28,08,49,13.10
2012,09,28,08,50,13.10
2012,09,28,08,51,13.10
2012,09,28,08,52,13.10
2012,09,28,08,53,13.10
2012,09,28,08,54,13.10
2012,09,28,08,55,13.10
2012,09,28,08,56,13.10
2012,09,28,08,57,13.10
2012,09,28,08,58,13.10
2012,09,28,08,59,13.10
2012,09,28,09,00,13.10
2012,09,28,09,01,13.10
2012,09,28,09,02,13.10
2012,09,28,09,03,13.10
2012,09,28,09,04,13.20
2012,09,28,09,05,13.20
2012,09,28,09,06,13.10
2012,09,28,09,07,13.10
2012,09,28,09,08,13.10
2012,09,28,09,09,13.00
2012,09,28,09,10,13.00
2012,09,28,09,11,12.90
2012,09,28,09,12,12.90
2012,09,28,09,13,12.80
2012,09,28,09,14,12.80
2012,09,28,09,15,12.80
2012,09,28,09,16,12.80
2012,09,28,09,17,12.80
2012,09,28,09,18,12.80
2012,09,28,09,19,12.80
2012,09,28,09,20,12.80
2012,09,28,09,21,12.80
2012,09,28,09,22,12.80
2012,09,28,09,23,12.80
2012,09,28,09,24,12.80
2012,09,28,09,25,12.90
2012,09,28,09,26,12.90
2012,09,28,09,27,12.90
2012,09,28,09,28,12.90
2012,09,28,09,29,12.90
2012,09,28,09,30,12.80
2012,09,28,09,31,12.80
2012,09,28,09,32,12.80
2012,09,28,09,33,12.80
2012,09,28,09,34,12.80
2012,09,28,09,35,12.80
2012,09,28,09,36,12.80
2012,09,28,09,37,12.80
2012,09,28,09,38,12.80
2012,09,28,09,39,12.80
2012,09,28,09,40,12.80
2012,09,28,09,41,12.80
2012,09,28,09,42,12.80
2012,09,28,09,43,12.80
2012,09,28,09,44,12.80
2012,09,28,09,45,12.80
2012,09,28,09,46,12.90
2012,09,28,09,47,13.00
2012,09,28,09,48,13.00
2012,09,28,09,49,13.00
2012,09,28,09,50,13.10
2012,09,28,09,51,13.20
2012,09,28,09,52,13.20
2012,09,28,09,53,13.30
2012,09,28,09,54,13.30
2012,09,28,09,55,13.30
2012,09,28,09,56,13.30
2012,09,28,09,57,13.30
2012,09,28,09,58,13.30
2012,09,28,09,59,13.30
2012,09,28,10,00,13.30
2012,09,28,10,01,13.30
2012,09,28,10,02,13.20
2012,09,28,10,03,13.20
2012,09,28,10,04,13.20
2012,09,28,10,05,13.10
2012,09,28,10,06,13.00
2012,09,28,10,07,12.90
2012,09,28,10,08,12.90
2012,09,28,10,09,12.80
2012,09,28,10,10,12.80
2012,09,28,10,11,12.80
2012,09,28,10,12,12.80
2012,09,28,10,13,12.80
2012,09,28,10,14,12.80
2012,09,28,10,15,12.90
2012,09,28,10,16,12.90
2012,09,28,10,17,13.00
2012,09,28,10,18,13.10
2012,09,28,10,19,13.20
2012,09,28,10,20,13.30
2012,09,28,10,21,13.40
2012,09,28,10,22,13.50
2012,09,28,10,23,13.50
2012,09,28,10,24,13.50
2012,09,28,10,25,13.60
2012,09,28,10,26,13.60
2012,09,28,10,27,13.70
2012,09,28,10,28,13.70
2012,09,28,10,29,13.70
2012,09,28,10,30,13.70
2012,09,28,10,31,13.60
2012,09,28,10,32,13.50
2012,09,28,10,33,13.40
2012,09,28,10,34,13.40
2012,09,28,10,35,13.40
2012,09,28,10,36,13.40
2012,09,28,10,37,13.50
2012,09,28,10,38,13.60
2012,09,28,10,39,13.70
2012,09,28,10,40,13.90
2012,09,28,10,41,13.90
2012,09,28,10,42,13.90
2012,09,28,10,43,13.90
2012,09,28,10,44,13.90
2012,09,28,10,45,14.00
2012,09,28,10,46,14.00
2012,09,28,10,47,14.10
2012,09,28,10,48,14.10
2012,09,28,10,49,14.20
2012,09,28,10,50,14.20
2012,09,28,10,51,14.30
2012,09,28,10,52,14.40
2012,09,28,10,53,14.40
2012,09,28,10,54,14.40
2012,09,28,10,55,14.30
2012,09,28,10,56,14.20
2012,09,28,10,57,14.20
2012,09,28,10,58,14.20
2012,09,28,10,59,14.30
2012,09,28,11,00,14.30
2012,09,28,11,01,14.40
2012,09,28,11,02,14.40
2012,09,28,11,03,14.40
2012,09,28,11,04,14.40
2012,09,28,11,05,14.40
2012,09,28,11,06,14.50
2012,09,28,11,07,14.50
2012,09,28,11,08,14.40
2012,09,28,11,09,14.30
2012,09,28,11,10,14.20
2012,09,28,11,11,14.20
2012,09,28,11,12,14.20
2012,09,28,11,13,14.10
2012,09,28,11,14,14.00
2012,09,28,11,15,13.90
2012,09,28,11,16,13.90
2012,09,28,11,17,13.90
2012,09,28,11,18,13.90
2012,09,28,11,19,13.80
2012,09,28,11,20,13.80
2012,09,28,11,21,13.80
2012,09,28,11,22,13.70
2012,09,28,11,23,13.70
2012,09,28,11,24,13.70
2012,09,28,11,25,13.70
2012,09,28,11,26,13.80
2012,09,28,11,27,13.90
2012,09,28,11,28,13.80
2012,09,28,11,29,13.80
2012,09,28,11,30,13.80
2012,09,28,11,31,13.80
2012,09,28,11,32,13.90
2012,09,28,11,33,13.90
2012,09,28,11,34,13.90
2012,09,28,11,35,14.00
2012,09,28,11,36,14.00
2012,09,28,11,37,14.00
2012,09,28,11,38,13.90
2012,09,28,11,39,13.90
2012,09,28,11,40,13.90
2012,09,28,11,41,13.90
2012,09,28,11,42,14.00
2012,09,28,11,43,14.10
2012,09,28,11,44,14.10
2012,09,28,11,45,14.20
2012,09,28,11,46,14.20
2012,09,28,11,47,14.30
2012,09,28,11,48,14.40
2012,09,28,11,49,14.40
2012,09,28,11,50,14.50
2012,09,28,11,51,14.60
2012,09,28,11,52,14.60
2012,09,28,11,53,14.60
2012,09,28,11,54,14.50
2012,09,28,11,55,14.50
2012,09,28,11,56,14.40
2012,09,28,11,57,14.40
2012,09,28,11,58,14.40
2012,09,28,11,59,14.40
2012,09,28,12,00,14.40
2012,09,28,12,01,14.40
2012,09,28,12,02,14.50
2012,09,28,12,03,14.50
2012,09,28,12,04,14.50
2012,09,28,12,05,14.40
2012,09,28,12,06,14.50
2012,09,28,12,07,14.60
2012,09,28,12,08,14.70
2012,09,28,12,09,14.80
2012,09,28,12,10,14.80
2012,09,28,12,11,14.80
2012,09,28,12,12,14.80
2012,09,28,12,13,14.80
2012,09,28,12,14,14.90
2012,09,28,12,15,15.00
2012,09,28,12,16,15.10
2012,09,28,12,17,15.10
2012,09,28,12,18,15.20
2012,09,28,12,19,15.30
2012,09,28,12,20,15.30
2012,09,28,12,21,15.30
2012,09,28,12,22,15.30
2012,09,28,12,23,15.40
2012,09,28,12,24,15.50
2012,09,28,12,25,15.60
2012,09,28,12,26,15.60
2012,09,28,12,27,15.60
2012,09,28,12,28,15.80
2012,09,28,12,29,15.80
2012,09,28,12,30,15.90
2012,09,28,12,31,16.10
2012,09,28,12,32,16.10
2012,09,28,12,33,16.10
2012,09,28,12,34,16.00
2012,09,28,12,35,15.90
2012,09,28,12,36,16.00
2012,09,28,12,37,16.10
2012,09,28,12,38,16.20
2012,09,28,12,39,16.20
2012,09,28,12,40,16.30
2012,09,28,12,41,16.40
2012,09,28,12,42,16.60
2012,09,28,12,43,16.70
2012,09,28,12,44,16.70
2012,09,28,12,45,16.70
2012,09,28,12,46,16.80
2012,09,28,12,47,16.80
2012,09,28,12,48,16.90
2012,09,28,12,49,16.90
2012,09,28,12,50,16.90
2012,09,28,12,51,16.90
2012,09,28,12,52,17.00
2012,09,28,12,53,17.00
2012,09,28,12,54,17.00
2012,09,28,12,55,16.90
2012,09,28,12,56,16.80
2012,09,28,12,57,16.80
2012,09,28,12,58,16.80
2012,09,28,12,59,16.80
2012,09,28,13,00,16.90
2012,09,28,13,01,16.80
2012,09,28,13,02,16.80
2012,09,28,13,03,16.90
2012,09,28,13,04,16.90
2012,09,28,13,05,17.00
2012,09,28,13,06,17.20
2012,09,28,13,07,17.30
2012,09,28,13,08,17.20
2012,09,28,13,09,17.20
2012,09,28,13,10,17.10
2012,09,28,13,11,17.10
2012,09,28,13,12,17.10
2012,09,28,13,13,17.10
2012,09,28,13,14,17.20
2012,09,28,13,15,17.20
2012,09,28,13,16,17.30
2012,09,28,13,17,17.30
2012,09,28,13,18,17.30
2012,09,28,13,19,17.30
2012,09,28,13,20,17.10
2012,09,28,13,21,17.10
2012,09,28,13,22,17.00
2012,09,28,13,23,17.00
2012,09,28,13,24,17.00
2012,09,28,13,25,17.10
2012,09,28,13,26,17.20
2012,09,28,13,27,17.20
2012,09,28,13,28,17.10
2012,09,28,13,29,17.20
2012,09,28,13,30,17.20
2012,09,28,13,31,17.20
2012,09,28,13,32,17.20
2012,09,28,13,33,17.20
2012,09,28,13,34,17.20
2012,09,28,13,35,17.20
2012,09,28,13,36,17.20
2012,09,28,13,37,17.20
2012,09,28,13,38,17.20
2012,09,28,13,39,17.20
2012,09,28,13,40,17.30
2012,09,28,13,41,17.30
2012,09,28,13,42,17.40
2012,09,28,13,43,17.40
2012,09,28,13,44,17.50
2012,09,28,13,45,17.50
2012,09,28,13,46,17.60
2012,09,28,13,47,17.60
2012,09,28,13,48,17.70
2012,09,28,13,49,17.80
2012,09,28,13,50,17.80
2012,09,28,13,51,17.80
2012,09,28,13,52,17.80
2012,09,28,13,53,17.90
2012,09,28,13,54,17.90
2012,09,28,13,55,18.00
2012,09,28,13,56,18.10
2012,09,28,13,57,18.10
2012,09,28,13,58,18.10
2012,09,28,13,59,18.10
2012,09,28,14,00,18.20
2012,09,28,14,01,18.20
2012,09,28,14,02,18.20
2012,09,28,14,03,18.30
2012,09,28,14,04,18.40
2012,09,28,14,05,18.50
2012,09,28,14,06,18.60
2012,09,28,14,07,18.70
2012,09,28,14,08,18.70
2012,09,28,14,09,18.70
2012,09,28,14,10,18.60
2012,09,28,14,11,18.60
2012,09,28,14,12,18.60
2012,09,28,14,13,18.60
2012,09,28,14,14,18.60
2012,09,28,14,15,18.70
2012,09,28,14,16,18.70
2012,09,28,14,17,18.70
2012,09,28,14,18,18.80
2012,09,28,14,19,18.80
2012,09,28,14,20,18.90
2012,09,28,14,21,18.90
2012,09,28,14,22,18.90
2012,09,28,14,23,18.90
2012,09,28,14,24,18.90
2012,09,28,14,25,18.90
2012,09,28,14,26,18.90
2012,09,28,14,27,18.80
2012,09,28,14,28,18.80
2012,09,28,14,29,18.80
2012,09,28,14,30,18.70
2012,09,28,14,31,18.70
2012,09,28,14,32,18.80
2012,09,28,14,33,18.90
2012,09,28,14,34,18.90
2012,09,28,14,35,19.00
2012,09,28,14,36,19.10
2012,09,28,14,37,19.10
2012,09,28,14,38,19.20
2012,09,28,14,39,19.30
2012,09,28,14,40,19.40
2012,09,28,14,41,19.50
2012,09,28,14,42,19.50
2012,09,28,14,43,19.50
2012,09,28,14,44,19.50
2012,09,28,14,45,19.60
2012,09,28,14,46,19.60
2012,09,28,14,47,19.60
2012,09,28,14,48,19.70
2012,09,28,14,49,19.70
2012,09,28,14,50,19.70
2012,09,28,14,51,19.70
2012,09,28,14,52,19.70
2012,09,28,14,53,19.70
2012,09,28,14,54,19.70
2012,09,28,14,55,19.60
2012,09,28,14,56,19.60
2012,09,28,14,57,19.60
2012,09,28,14,58,19.60
2012,09,28,14,59,19.60
2012,09,28,15,00,19.60
2012,09,28,15,01,19.50
2012,09,28,15,02,19.50
2012,09,28,15,03,19.50
2012,09,28,15,04,19.40
2012,09,28,15,05,19.40
2012,09,28,15,06,19.40
2012,09,28,15,07,19.40
2012,09,28,15,08,19.40
2012,09,28,15,09,19.30
2012,09,28,15,10,19.40
2012,09,28,15,11,19.50
2012,09,28,15,12,19.50
2012,09,28,15,13,19.40
2012,09,28,15,14,19.30
2012,09,28,15,15,19.20
2012,09,28,15,16,19.10
2012,09,28,15,17,19.10
2012,09,28,15,18,19.00
2012,09,28,15,19,18.90
2012,09,28,15,20,18.90
2012,09,28,15,21,18.90
2012,09,28,15,22,18.80
2012,09,28,15,23,18.80
2012,09,28,15,24,18.80
2012,09,28,15,25,18.80
2012,09,28,15,26,18.80
2012,09,28,15,27,18.80
2012,09,28,15,28,18.90
2012,09,28,15,29,18.90
2012,09,28,15,30,18.90
2012,09,28,15,31,19.10
2012,09,28,15,32,19.10
2012,09,28,15,33,19.10
2012,09,28,15,34,19.10
2012,09,28,15,35,19.10
2012,09,28,15,36,19.10
2012,09,28,15,37,19.10
2012,09,28,15,38,19.10
2012,09,28,15,39,19.10
2012,09,28,15,40,19.10
2012,09,28,15,41,19.10
2012,09,28,15,42,19.10
2012,09,28,15,43,19.10
2012,09,28,15,44,19.10
2012,09,28,15,45,19.00
2012,09,28,15,46,18.90
2012,09,28,15,47,18.80
2012,09,28,15,48,18.60
2012,09,28,15,49,18.60
2012,09,28,15,50,18.50
2012,09,28,15,51,18.40
2012,09,28,15,52,18.20
2012,09,28,15,53,18.20
2012,09,28,15,54,18.10
2012,09,28,15,55,18.00
2012,09,28,15,56,17.90
2012,09,28,15,57,17.90
2012,09,28,15,58,17.90
2012,09,28,15,59,17.90
2012,09,28,16,00,17.90
2012,09,28,16,01,17.90
2012,09,28,16,02,17.90
2012,09,28,16,03,18.00
2012,09,28,16,04,18.10
2012,09,28,16,05,18.10
2012,09,28,16,06,18.20
2012,09,28,16,07,18.20
2012,09,28,16,08,18.20
2012,09,28,16,09,18.20
2012,09,28,16,10,18.20
2012,09,28,16,11,18.20
2012,09,28,16,12,18.30
2012,09,28,16,13,18.30
2012,09,28,16,14,18.40
2012,09,28,16,15,18.40
2012,09,28,16,16,18.50
2012,09,28,16,17,18.60
2012,09,28,16,18,18.80
2012,09,28,16,19,18.80
2012,09,28,16,20,18.90
2012,09,28,16,21,18.90
2012,09,28,16,22,18.90
2012,09,28,16,23,18.90
2012,09,28,16,24,18.90
2012,09,28,16,25,19.00
2012,09,28,16,26,18.90
2012,09,28,16,27,18.90
2012,09,28,16,28,18.90
2012,09,28,16,29,18.80
2012,09,28,16,30,18.90
2012,09,28,16,31,18.90
2012,09,28,16,32,18.90
2012,09,28,16,33,18.90
2012,09,28,16,34,18.90
2012,09,28,16,35,18.90
2012,09,28,16,36,19.00
2012,09,28,16,37,19.10
2012,09,28,16,38,19.10
2012,09,28,16,39,19.10
2012,09,28,16,40,19.10
2012,09,28,16,41,19.10
2012,09,28,16,42,19.10
2012,09,28,16,43,19.10
2012,09,28,16,44,19.20
2012,09,28,16,45,19.20
2012,09,28,16,46,19.20
2012,09,28,16,47,19.30
2012,09,28,16,48,19.30
2012,09,28,16,49,19.20
2012,09,28,16,50,19.20
2012,09,28,16,51,19.10
2012,09,28,16,52,19.10
2012,09,28,16,53,19.10
2012,09,28,16,54,19.10
2012,09,28,16,55,19.10
2012,09,28,16,56,19.00
2012,09,28,16,57,18.90
2012,09,28,16,58,18.90
2012,09,28,16,59,18.90
2012,09,28,17,00,18.90
2012,09,28,17,01,18.90
2012,09,28,17,02,18.90
2012,09,28,17,03,18.90
2012,09,28,17,04,18.90
2012,09,28,17,05,18.90
2012,09,28,17,06,18.90
2012,09,28,17,07,18.90
2012,09,28,17,08,18.90
2012,09,28,17,09,18.90
2012,09,28,17,10,19.00
2012,09,28,17,11,19.10
2012,09,28,17,12,19.10
2012,09,28,17,13,19.10
2012,09,28,17,14,19.10
2012,09,28,17,15,19.20
2012,09,28,17,16,19.20
2012,09,28,17,17,19.20
2012,09,28,17,18,19.30
2012,09,28,17,19,19.30